timestamp,surface_pressure_avg,surface_temp_avg,battery_voltage,lat,long
2020-08-26 00:09:01+00:00,222.4331,18.2,12.89,47.84626,-54.09684
2020-08-26 00:19:01+00:00,222.1714,18.2,12.73,47.84626,-54.09684
2020-08-26 00:29:01+00:00,221.8498,18.2,12.73,47.84626,-54.09684
2020-08-26 00:39:01+00:00,223.7731,18.2,12.73,47.84626,-54.09684
2020-08-26 00:49:01+00:00,225.3481,18.2,12.73,47.84626,-54.09684
2020-08-26 00:59:01+00:00,224.2415,18.19,12.73,47.84626,-54.09684
2020-08-26 01:09:01+00:00,224.6881,18.18,12.73,47.84626,-54.09684
2020-08-26 01:19:01+00:00,227.2598,18.18,12.73,47.84626,-54.09684
2020-08-26 01:29:01+00:00,230.7814,18.18,12.73,47.84626,-54.09684
2020-08-26 01:39:01+00:00,233.6515,18.18,12.73,47.84626,-54.09684
2020-08-26 01:49:01+00:00,237.8448,18.18,12.73,47.84626,-54.09684
2020-08-26 01:59:01+00:00,243.4698,18.19,12.73,47.84626,-54.09684
2020-08-26 02:09:01+00:00,251.2031,18.2,12.73,47.84626,-54.09684
2020-08-26 02:19:01+00:00,258.113,18.23,12.73,47.84626,-54.09684
2020-08-26 02:29:01+00:00,264.3697,18.25,12.73,47.84626,-54.09684
2020-08-26 02:39:01+00:00,271.0381,18.2,12.73,47.84626,-54.09684
2020-08-26 02:49:01+00:00,278.9947,18.2,12.73,47.84626,-54.09684
2020-08-26 02:59:01+00:00,284.8447,18.1,12.73,47.84626,-54.09684
2020-08-26 03:09:01+00:00,292.3331,18.17,12.73,47.84626,-54.09684
2020-08-26 03:19:01+00:00,298.718,18.24,12.73,47.84626,-54.09684
2020-08-26 03:29:01+00:00,302.0997,18.33,12.73,47.84626,-54.09684
2020-08-26 03:39:01+00:00,307.2781,18.4,12.73,47.84626,-54.09684
2020-08-26 03:49:01+00:00,313.7147,18.4,12.73,47.84626,-54.09684
2020-08-26 03:59:01+00:00,317.4197,18.49,12.73,47.84626,-54.09684
2020-08-26 04:09:01+00:00,315.7663,18.5,12.73,47.84626,-54.09684
2020-08-26 04:19:01+00:00,317.718,18.5,12.73,47.84626,-54.09684
2020-08-26 04:29:01+00:00,321.9547,18.5,12.73,47.84626,-54.09684
2020-08-26 04:39:01+00:00,326.3863,18.5,12.73,47.84626,-54.09684
2020-08-26 04:49:01+00:00,328.4896,18.55,12.73,47.84626,-54.09684
2020-08-26 04:59:01+00:00,328.7030000000001,18.6,12.73,47.84626,-54.09684
2020-08-26 05:09:01+00:00,332.5863,18.6,12.73,47.84626,-54.09684
2020-08-26 05:19:01+00:00,336.5297,18.6,12.73,47.84626,-54.09684
2020-08-26 05:29:01+00:00,335.5047,18.6,12.73,47.84626,-54.09684
2020-08-26 05:39:01+00:00,335.3646,18.6,12.73,47.84626,-54.09684
2020-08-26 05:49:01+00:00,336.528,18.6,12.73,47.84626,-54.09684
2020-08-26 05:59:01+00:00,336.86300000000006,18.6,12.73,47.84626,-54.09684
2020-08-26 06:09:01+00:00,331.9463,18.59,12.73,47.84626,-54.09684
2020-08-26 06:19:01+00:00,332.67800000000005,18.56,12.73,47.84626,-54.09684
2020-08-26 06:29:01+00:00,335.4013,18.53,12.73,47.84626,-54.09684
2020-08-26 06:39:01+00:00,334.1363,18.56,12.73,47.84626,-54.09684
2020-08-26 06:49:01+00:00,330.3130000000001,18.57,12.73,47.84626,-54.09684
2020-08-26 06:59:01+00:00,326.783,18.56,12.73,47.84626,-54.09684
2020-08-26 07:09:01+00:00,323.113,18.55,12.73,47.84626,-54.09684
2020-08-26 07:19:01+00:00,316.2863,18.5,12.73,47.84626,-54.09684
2020-08-26 07:29:01+00:00,309.5913,18.5,12.73,47.84626,-54.09684
2020-08-26 07:39:01+00:00,300.8547,18.5,12.73,47.84626,-54.09684
2020-08-26 07:49:01+00:00,289.3796,18.5,12.73,47.84626,-54.09684
2020-08-26 07:59:01+00:00,280.5764,18.5,12.73,47.84626,-54.09684
2020-08-26 08:09:01+00:00,274.2214,18.4,12.73,47.84626,-54.09684
2020-08-26 08:19:01+00:00,266.52299999999997,18.4,12.65,47.84626,-54.09684
2020-08-26 08:29:01+00:00,261.418,18.4,12.65,47.84626,-54.09684
2020-08-26 08:39:01+00:00,259.8448,18.4,12.65,47.84626,-54.09684
2020-08-26 08:49:01+00:00,257.0947,18.4,12.65,47.84626,-54.09684
2020-08-26 08:59:01+00:00,247.9897,18.4,12.65,47.84626,-54.09684
2020-08-26 09:09:01+00:00,239.8097,18.4,12.65,47.84626,-54.09684
2020-08-26 09:19:01+00:00,232.8581,18.4,12.65,47.84626,-54.09684
2020-08-26 09:29:01+00:00,225.2548,18.4,12.65,47.84626,-54.09684
2020-08-26 09:39:01+00:00,220.5314,18.39,12.65,47.84626,-54.09684
2020-08-26 09:49:01+00:00,221.0164,18.37,12.65,47.84626,-54.09684
2020-08-26 09:59:01+00:00,219.0097,18.35,12.65,47.84626,-54.09684
2020-08-26 10:09:01+00:00,214.8431,18.3,12.65,47.84626,-54.09684
2020-08-26 10:19:01+00:00,213.2031,18.3,12.65,47.84626,-54.09684
2020-08-26 10:29:01+00:00,214.8381,18.3,12.65,47.84626,-54.09684
2020-08-26 10:39:01+00:00,217.4648,18.3,12.65,47.84626,-54.09684
2020-08-26 10:49:01+00:00,218.7065,18.3,12.65,47.84626,-54.09684
2020-08-26 10:59:01+00:00,218.6432,18.37,12.65,47.84626,-54.09684
2020-08-26 11:09:01+00:00,220.4081,18.4,12.65,47.84626,-54.09684
2020-08-26 11:19:01+00:00,224.0731,18.39,12.65,47.84626,-54.09684
2020-08-26 11:29:01+00:00,228.3297,18.39,12.65,47.84626,-54.09684
2020-08-26 11:39:01+00:00,228.3114,18.39,12.65,47.84626,-54.09684
2020-08-26 11:49:01+00:00,229.7814,18.39,12.65,47.84626,-54.09684
2020-08-26 11:59:01+00:00,237.1764,18.31,12.65,47.84626,-54.09684
2020-08-26 12:09:01+00:00,243.0164,18.34,12.65,47.84626,-54.09684
2020-08-26 12:19:01+00:00,246.0681,18.3,12.73,47.84626,-54.09684
2020-08-26 12:29:01+00:00,248.9914,18.3,12.73,47.84626,-54.09684
2020-08-26 12:39:01+00:00,253.2214,18.3,12.73,47.84626,-54.09684
2020-08-26 12:49:01+00:00,252.0198,18.3,12.73,47.84626,-54.09684
2020-08-26 12:59:01+00:00,248.7898,18.25,12.73,47.84626,-54.09684
2020-08-26 13:09:01+00:00,252.3447,18.25,12.73,47.84626,-54.09684
2020-08-26 13:19:01+00:00,257.6698,18.22,12.73,47.84626,-54.09684
2020-08-26 13:29:01+00:00,258.1831,18.27,12.73,47.84626,-54.09684
2020-08-26 13:39:01+00:00,254.0747,18.3,12.73,47.84626,-54.09684
2020-08-26 13:49:01+00:00,259.7731,18.3,12.73,47.84626,-54.09684
2020-08-26 13:59:01+00:00,264.183,18.3,12.73,47.84626,-54.09684
2020-08-26 14:09:01+00:00,263.8798,18.3,12.73,47.84626,-54.09684
2020-08-26 14:19:01+00:00,265.7514,18.3,12.65,47.84626,-54.09684
2020-08-26 14:29:01+00:00,273.738,18.32,12.65,47.84626,-54.09684
2020-08-26 14:39:01+00:00,280.9315,18.31,12.65,47.84626,-54.09684
2020-08-26 14:49:01+00:00,287.4548,18.4,12.65,47.84626,-54.09684
2020-08-26 14:59:01+00:00,299.0397,18.4,12.65,47.84626,-54.09684
2020-08-26 15:09:01+00:00,308.563,18.37,12.65,47.84626,-54.09684
2020-08-26 15:19:01+00:00,309.8947,18.37,12.65,47.84626,-54.09684
2020-08-26 15:29:01+00:00,319.1197,18.38,12.65,47.84626,-54.09684
2020-08-26 15:39:01+00:00,325.7963,18.38,12.65,47.84626,-54.09684
2020-08-26 15:49:01+00:00,327.8246,18.39,12.65,47.84626,-54.09684
2020-08-26 15:59:01+00:00,328.2296,18.4,12.65,47.84626,-54.09684
2020-08-26 16:09:01+00:00,332.0747,18.4,12.65,47.84626,-54.09684
2020-08-26 16:19:01+00:00,334.9346,18.4,12.65,47.84626,-54.09684
2020-08-26 16:29:01+00:00,335.4495,18.4,12.65,47.84626,-54.09684
2020-08-26 16:39:01+00:00,340.603,18.4,12.65,47.84626,-54.09684
2020-08-26 16:49:01+00:00,348.4012,18.4,12.65,47.84626,-54.09684
2020-08-26 16:59:01+00:00,348.93300000000005,18.4,12.65,47.84626,-54.09684
2020-08-26 17:09:01+00:00,351.4913,18.4,12.65,47.84626,-54.09684
2020-08-26 17:19:01+00:00,356.2113,18.4,12.89,47.84626,-54.09684
2020-08-26 17:29:01+00:00,355.25800000000015,18.4,12.89,47.84626,-54.09684
2020-08-26 17:39:01+00:00,353.05300000000005,18.42,12.89,47.84626,-54.09684
2020-08-26 17:49:01+00:00,355.1063,18.43,12.89,47.84626,-54.09684
2020-08-26 17:59:01+00:00,356.6546,18.4,12.89,47.84626,-54.09684
2020-08-26 18:09:01+00:00,354.4479,18.4,12.89,47.84626,-54.09684
2020-08-26 18:19:01+00:00,355.8997,18.4,12.89,47.84626,-54.09684
2020-08-26 18:29:01+00:00,356.8646,18.4,12.89,47.84626,-54.09684
2020-08-26 18:39:01+00:00,352.1263,18.42,12.89,47.84626,-54.09684
2020-08-26 18:49:01+00:00,348.88300000000015,18.45,12.89,47.84626,-54.09684
2020-08-26 18:59:01+00:00,347.0429,18.46,12.89,47.84626,-54.09684
2020-08-26 19:09:01+00:00,345.2063,18.47,12.89,47.84626,-54.09684
2020-08-26 19:19:01+00:00,342.4396,18.49,12.73,47.84626,-54.09684
2020-08-26 19:29:01+00:00,334.4713,18.48,12.73,47.84626,-54.09684
2020-08-26 19:39:01+00:00,327.033,18.49,12.73,47.84626,-54.09684
2020-08-26 19:49:01+00:00,325.6714,18.48,12.73,47.84626,-54.09684
2020-08-26 19:59:01+00:00,318.0463,18.46,12.73,47.84626,-54.09684
2020-08-26 20:09:01+00:00,306.5231,18.44,12.73,47.84626,-54.09684
2020-08-26 20:19:01+00:00,301.3163,18.45,12.89,47.84626,-54.09684
2020-08-26 20:29:01+00:00,296.563,18.45,12.89,47.84626,-54.09684
2020-08-26 20:39:01+00:00,287.0697,18.47,12.89,47.84626,-54.09684
2020-08-26 20:49:01+00:00,281.1698,18.47,12.89,47.84626,-54.09684
2020-08-26 20:59:01+00:00,277.8931,18.46,12.89,47.84626,-54.09684
2020-08-26 21:09:01+00:00,272.1947,18.46,12.89,47.84626,-54.09684
2020-08-26 21:19:01+00:00,265.1764,18.48,12.81,47.84626,-54.09684
2020-08-26 21:29:01+00:00,262.0364,18.48,12.81,47.84626,-54.09684
2020-08-26 21:39:01+00:00,259.2064,18.48,12.81,47.84626,-54.09684
2020-08-26 21:49:01+00:00,249.4847,18.49,12.81,47.84626,-54.09684
2020-08-26 21:59:01+00:00,239.2998,18.49,12.81,47.84626,-54.09684
2020-08-26 22:09:01+00:00,235.9698,18.49,12.81,47.84626,-54.09684
2020-08-26 22:19:01+00:00,233.3914,18.49,12.65,47.84626,-54.09684
2020-08-26 22:29:01+00:00,224.7981,18.49,12.65,47.84626,-54.09684
2020-08-26 22:39:01+00:00,217.8482,18.49,12.65,47.84626,-54.09684
2020-08-26 22:49:01+00:00,220.3131,18.49,12.65,47.84626,-54.09684
2020-08-26 22:59:01+00:00,222.7847,18.49,12.65,47.84626,-54.09684
2020-08-26 23:09:01+00:00,219.6831,18.49,12.65,47.84626,-54.09684
2020-08-26 23:19:01+00:00,216.5964,18.5,12.65,47.84626,-54.09684
2020-08-26 23:29:01+00:00,216.8881,18.5,12.65,47.84626,-54.09684
2020-08-26 23:39:01+00:00,214.8131,18.5,12.65,47.84626,-54.09684
2020-08-26 23:49:01+00:00,213.9731,18.5,12.65,47.84626,-54.09684
2020-08-26 23:59:01+00:00,217.6097,18.5,12.65,47.84626,-54.09684
